Lid_Strength_Index
3 3 3 3 3 3 3 3 3 2 2 2 2 2 2 2 2 2 2 3 3 3
3 3 3 3 3 3 3 3 2 2 2 2 2 1 2 1 1 2 2 2 2 2
3 2 3 3 3 3 2 2 2 2 2 2 2 1 1 1 1 2 2 2 2 2
2 2 3 3 2 3 3 2 2 2 2 2 2 2 2 2 1 2 2 3 3 3
3 3 3 2 2 3 3 2 2 2 1 1 2 2 2 2 1 2 2 2 3 2
3 3 3 2 2 2 2 2 2 2 2 2 2 1 1 1 1 2 2 2 3 3
3 3 3 2 2 1 1 1 1 2 1 1 2 1 1 1 2 2 1 2 2 2
3 3 2 2 2 2 1 1 1 2 2 2 3 4 4 1 2 3 3 2 1 2
2 2 2 2 2 1 1 1 2 2 3 3 3 10 8 4 2 2 2 2 2 3
2 2 2 2 2 2 2 2 2 4 4 4 5 11 9 6 2 2 1 2 2 3
2 2 2 2 2 3 3 2 3 4 4 4 5 11 9 7 2 2 1 2 2 3
2 2 2 3 3 3 3 3 4 4 5 4 5 11 9 4 3 2 2 1 1 2
2 2 2 2 3 3 2 2 2 4 4 5 5 11 9 4 2 2 2 2 3 7
2 2 2 3 3 2 3 3 3 4 4 4 5 7 10 8 2 2 2 2 3 4